Station Historical Data
Daily Summary for January 12, 2018 Units:  English    Metric   Both
« Previous Day
Next Day »
Daily Weekly Monthly Yearly Custom
  High: Low: Average:
Temperature: TemperatureF °F 16.6 °F 40.9 °F
Dew Point: DewpointF °F 13.7 °F 37.3 °F
Humidity: Humidity% 80% 87%
Wind Speed: WindSpeedMPHmph 0.0mph 5.8mph
Wind Gust: WindSpeedGustMPHmph - -
Wind- - WSW
Pressure: PressureIn in 29.59 in -
Precipitation: 0.00 in    
Historical Graphs
 
 
Tabular Data for January 12, 2018
Time Temperature Dew Point Pressure Wind Wind Speed Wind Gust Humidity Rainfall Rate (Hourly)
TemperatureF °F DewpointF °F PressureIn in Calm     Humidity% HourlyPrecipIn in
00:04 56.5 °F 51.1 °F 29.79 in South 8.0 mph 18.0 mph 82% 0.00 in
00:09 56.5 °F 51.1 °F 29.79 in South 13.0 mph 18.0 mph 82% 0.00 in
00:14 56.6 °F 51.2 °F 29.78 in SSW 11.0 mph 18.0 mph 82% 0.00 in
00:19 56.8 °F 51.4 °F 29.78 in South 10.0 mph 17.0 mph 82% 0.00 in
00:24 57.1 °F 51.3 °F 29.78 in South 7.0 mph 19.0 mph 81% 0.00 in
00:29 57.3 °F 51.2 °F 29.78 in SSW 8.0 mph 20.0 mph 80% 0.00 in
00:34 57.3 °F 51.2 °F 29.77 in SSE 7.0 mph 19.0 mph 80% 0.00 in
00:39 57.4 °F 51.3 °F 29.78 in South 16.0 mph 16.0 mph 80% 0.00 in
00:44 57.4 °F 51.6 °F 29.78 in South 14.0 mph 22.0 mph 81% 0.00 in
00:49 57.1 °F 51.7 °F 29.78 in South 9.0 mph 22.0 mph 82% 0.01 in
00:54 56.8 °F 51.7 °F 29.76 in South 7.0 mph 18.0 mph 83% 0.01 in
00:59 56.7 °F 51.6 °F 29.77 in South 7.0 mph 17.0 mph 83% 0.01 in
01:04 56.7 °F 51.6 °F 29.76 in South 7.0 mph 18.0 mph 83% 0.01 in
01:09 56.9 °F 51.8 °F 29.76 in South 8.0 mph 18.0 mph 83% 0.01 in
01:14 57.0 °F 51.6 °F 29.76 in South 7.0 mph 18.0 mph 82% 0.01 in
01:24 57.4 °F 51.6 °F 29.76 in South 15.0 mph 18.0 mph 81% 0.01 in
01:29 57.5 °F 51.7 °F 29.76 in SSE 7.0 mph 16.0 mph 81% 0.01 in
01:34 57.8 °F 52.0 °F 29.75 in SSE 7.0 mph 22.0 mph 81% 0.01 in
01:39 57.9 °F 51.8 °F 29.76 in South 12.0 mph 15.0 mph 80% 0.01 in
01:44 57.9 °F 51.8 °F 29.75 in SSW 5.0 mph 16.0 mph 80% 0.01 in
01:49 57.8 °F 52.0 °F 29.75 in South 7.0 mph 16.0 mph 81% 0.00 in
01:54 57.9 °F 52.1 °F 29.75 in South 8.0 mph 17.0 mph 81% 0.00 in
01:59 57.9 °F 52.1 °F 29.75 in South 8.0 mph 20.0 mph 81% 0.00 in
02:09 57.2 °F 52.1 °F 29.74 in South 8.0 mph 15.0 mph 83% 0.00 in
02:14 56.9 °F 52.1 °F 29.74 in South 8.0 mph 17.0 mph 84% 0.01 in
02:19 56.8 °F 52.0 °F 29.74 in South 8.0 mph 17.0 mph 84% 0.01 in
02:24 56.6 °F 52.1 °F 29.73 in South 7.0 mph 16.0 mph 85% 0.01 in
02:29 56.5 °F 52.0 °F 29.73 in South 7.0 mph 14.0 mph 85% 0.01 in
02:34 56.4 °F 51.9 °F 29.73 in South 3.0 mph 11.0 mph 85% 0.01 in
02:39 56.4 °F 52.3 °F 29.73 in SSE 5.0 mph 16.0 mph 86% 0.01 in
02:44 56.4 °F 52.3 °F 29.73 in South 4.0 mph 12.0 mph 86% 0.01 in
02:49 56.4 °F 51.9 °F 29.73 in SSE 6.0 mph 13.0 mph 85% 0.01 in
02:54 56.5 °F 52.0 °F 29.73 in SSW 6.0 mph 17.0 mph 85% 0.01 in
02:59 56.6 °F 52.1 °F 29.73 in SSE 2.0 mph 14.0 mph 85% 0.02 in
03:04 56.6 °F 52.1 °F 29.73 in SSW 6.0 mph 14.0 mph 85% 0.02 in
03:09 56.7 °F 52.2 °F 29.73 in South 6.0 mph 13.0 mph 85% 0.03 in
03:14 56.6 °F 52.5 °F 29.73 in South 7.0 mph 14.0 mph 86% 0.03 in
03:19 56.5 °F 52.4 °F 29.73 in South 8.0 mph 14.0 mph 86% 0.05 in
03:24 56.4 °F 52.3 °F 29.72 in South 7.0 mph 13.0 mph 86% 0.06 in
03:29 56.3 °F 52.2 °F 29.72 in South 6.0 mph 13.0 mph 86% 0.07 in
03:34 56.3 °F 52.5 °F 29.71 in SSW 4.0 mph 10.0 mph 87% 0.07 in
03:39 56.2 °F 52.4 °F 29.72 in SSW 3.0 mph 9.0 mph 87% 0.07 in
03:44 56.2 °F 52.4 °F 29.71 in South 5.0 mph 10.0 mph 87% 0.07 in
03:49 56.1 °F 52.3 °F 29.71 in South 11.0 mph 13.0 mph 87% 0.07 in
03:54 56.3 °F 52.5 °F 29.71 in South 6.0 mph 14.0 mph 87% 0.07 in
03:59 56.5 °F 52.4 °F 29.71 in SSE 4.0 mph 13.0 mph 86% 0.07 in
04:04 56.6 °F 52.5 °F 29.71 in SSW 5.0 mph 10.0 mph 86% 0.07 in
04:09 56.8 °F 52.7 °F 29.70 in SSW 8.0 mph 16.0 mph 86% 0.07 in
04:14 56.9 °F 52.4 °F 29.71 in South 8.0 mph 16.0 mph 85% 0.06 in
04:19 56.9 °F 52.4 °F 29.70 in SSW 7.0 mph 16.0 mph 85% 0.04 in
04:29 56.8 °F 52.3 °F 29.70 in South 6.0 mph 12.0 mph 85% 0.03 in
04:34 56.7 °F 52.6 °F 29.70 in South 5.0 mph 8.0 mph 86% 0.04 in
04:39 56.6 °F 52.5 °F 29.70 in South 5.0 mph 11.0 mph 86% 0.04 in
04:44 56.6 °F 52.5 °F 29.69 in South 6.0 mph 12.0 mph 86% 0.05 in
04:59 56.6 °F 52.8 °F 29.68 in South 8.0 mph 17.0 mph 87% 0.05 in
05:04 56.6 °F 52.5 °F 29.68 in South 15.0 mph 17.0 mph 86% 0.05 in
05:09 56.6 °F 52.5 °F 29.68 in SSW 5.0 mph 15.0 mph 86% 0.05 in
05:14 56.6 °F 52.8 °F 29.68 in SSW 7.0 mph 17.0 mph 87% 0.06 in
05:19 56.6 °F 52.8 °F 29.67 in South 8.0 mph 17.0 mph 87% 0.07 in
05:24 56.5 °F 52.7 °F 29.67 in SSW 7.0 mph 11.0 mph 87% 0.07 in
05:29 56.6 °F 52.8 °F 29.66 in South 9.0 mph 15.0 mph 87% 0.07 in
05:34 56.6 °F 53.1 °F 29.65 in SSE 6.0 mph 11.0 mph 88% 0.06 in
05:39 56.5 °F 53.0 °F 29.65 in South 7.0 mph 11.0 mph 88% 0.07 in
05:44 56.5 °F 53.0 °F 29.65 in SSW 4.0 mph 9.0 mph 88% 0.06 in
05:49 56.5 °F 53.0 °F 29.65 in SSW 6.0 mph 10.0 mph 88% 0.07 in
05:54 56.5 °F 53.0 °F 29.65 in South 5.0 mph 12.0 mph 88% 0.07 in
05:59 56.5 °F 53.0 °F 29.65 in South 5.0 mph 12.0 mph 88% 0.06 in
06:04 56.5 °F 53.0 °F 29.65 in South 4.0 mph 9.0 mph 88% 0.06 in
06:14 56.5 °F 53.0 °F 29.64 in South 4.0 mph 8.0 mph 88% 0.04 in
06:19 56.5 °F 53.0 °F 29.64 in SW 9.0 mph 11.0 mph 88% 0.03 in
06:24 56.6 °F 53.1 °F 29.65 in SSW 6.0 mph 11.0 mph 88% 0.03 in
06:29 56.8 °F 53.3 °F 29.65 in South 3.0 mph 16.0 mph 88% 0.02 in
06:39 56.9 °F 53.1 °F 29.64 in SSW 6.0 mph 13.0 mph 87% 0.01 in
06:44 56.9 °F 53.1 °F 29.63 in SSW 5.0 mph 10.0 mph 87% 0.01 in
06:49 56.9 °F 53.1 °F 29.63 in South 8.0 mph 8.0 mph 87% 0.00 in
06:54 56.9 °F 53.1 °F 29.62 in South 6.0 mph 9.0 mph 87% 0.00 in
06:59 56.8 °F 52.7 °F 29.62 in South 5.0 mph 9.0 mph 86% 0.01 in
07:04 56.8 °F 53.0 °F 29.62 in South 4.0 mph 8.0 mph 87% 0.01 in
07:09 56.6 °F 52.8 °F 29.62 in SSW 3.0 mph 6.0 mph 87% 0.01 in
07:14 56.6 °F 52.8 °F 29.62 in South 4.0 mph 7.0 mph 87% 0.01 in
07:19 56.6 °F 52.8 °F 29.62 in South 4.0 mph 10.0 mph 87% 0.01 in
07:24 56.7 °F 52.9 °F 29.62 in SSW 6.0 mph 10.0 mph 87% 0.01 in
07:29 56.8 °F 53.0 °F 29.62 in WSW 6.0 mph 6.0 mph 87% 0.01 in
07:34 56.9 °F 53.1 °F 29.62 in SSW 4.0 mph 11.0 mph 87% 0.01 in
07:44 57.0 °F 53.2 °F 29.62 in SSW 5.0 mph 10.0 mph 87% 0.02 in
07:49 56.9 °F 53.1 °F 29.62 in SW 3.0 mph 7.0 mph 87% 0.02 in
07:54 57.0 °F 53.2 °F 29.61 in South 4.0 mph 7.0 mph 87% 0.02 in
07:59 56.9 °F 53.1 °F 29.62 in SSW 3.0 mph 7.0 mph 87% 0.01 in
08:04 56.9 °F 53.1 °F 29.61 in SSW 3.0 mph 7.0 mph 87% 0.01 in
08:09 56.9 °F 53.1 °F 29.61 in SSW 3.0 mph 8.0 mph 87% 0.01 in
08:14 57.0 °F 53.2 °F 29.61 in SSW 4.0 mph 8.0 mph 87% 0.01 in
08:19 57.0 °F 53.2 °F 29.61 in SSW 4.0 mph 10.0 mph 87% 0.01 in
08:24 57.1 °F 53.3 °F 29.61 in SSW 4.0 mph 10.0 mph 87% 0.01 in
08:29 57.2 °F 53.4 °F 29.61 in Calm   9.0 mph 87% 0.02 in
08:39 57.2 °F 53.4 °F 29.61 in SSW 2.0 mph 9.0 mph 87% 0.01 in
08:49 57.1 °F 53.6 °F 29.61 in SSW 3.0 mph 8.0 mph 88% 0.01 in
08:54 57.1 °F 53.6 °F 29.61 in SSW 2.0 mph 8.0 mph 88% 0.01 in
08:59 57.1 °F 53.6 °F 29.61 in SSW 4.0 mph 7.0 mph 88% 0.01 in
09:04 57.1 °F 53.6 °F 29.61 in South 5.0 mph 6.0 mph 88% 0.01 in
09:09 57.3 °F 53.8 °F 29.61 in SW 3.0 mph 7.0 mph 88% 0.01 in
09:14 57.4 °F 53.6 °F 29.61 in SSW 3.0 mph 7.0 mph 87% 0.01 in
09:19 57.5 °F 53.7 °F 29.61 in SSW 4.0 mph 11.0 mph 87% 0.01 in
09:24 57.8 °F 54.0 °F 29.61 in SSW 5.0 mph 11.0 mph 87% 0.01 in
09:29 57.9 °F 54.1 °F 29.61 in SSW 5.0 mph 9.0 mph 87% 0.00 in
09:34 58.0 °F 54.2 °F 29.61 in SSW 5.0 mph 13.0 mph 87% 0.00 in
09:39 58.3 °F 54.1 °F 29.60 in SSW 7.0 mph 10.0 mph 86% 0.00 in
09:44 58.5 °F 54.3 °F 29.60 in South 5.0 mph 9.0 mph 86% 0.00 in
09:49 58.7 °F 54.2 °F 29.60 in SSW 6.0 mph 12.0 mph 85% 0.00 in
09:54 58.9 °F 54.4 °F 29.60 in SSW 6.0 mph 12.0 mph 85% 0.00 in
09:59 59.2 °F 54.4 °F 29.60 in SSW 5.0 mph 15.0 mph 84% 0.00 in
10:04 59.4 °F 54.6 °F 29.60 in SSW 7.0 mph 15.0 mph 84% 0.00 in
10:09 59.4 °F 54.2 °F 29.60 in South 4.0 mph 10.0 mph 83% 0.00 in
10:14 59.6 °F 54.4 °F 29.60 in South 6.0 mph 14.0 mph 83% 0.00 in
10:19 59.6 °F 54.4 °F 29.60 in South 3.0 mph 11.0 mph 83% 0.00 in
10:24 59.6 °F 54.1 °F 29.60 in SSW 5.0 mph 11.0 mph 82% 0.00 in
10:29 59.6 °F 54.1 °F 29.60 in SSW 5.0 mph 9.0 mph 82% 0.00 in
10:34 59.5 °F 54.0 °F 29.60 in SW 5.0 mph 9.0 mph 82% 0.00 in
10:39 59.3 °F 53.8 °F 29.60 in SW 5.0 mph 8.0 mph 82% 0.00 in
10:44 58.3 °F 52.5 °F 29.60 in WSW 8.0 mph 9.0 mph 81% 0.00 in
10:49 56.9 °F 51.5 °F 29.60 in WSW 7.0 mph 9.0 mph 82% 0.00 in
10:54 55.9 °F 50.8 °F 29.60 in WSW 2.0 mph 9.0 mph 83% 0.00 in
10:59 55.3 °F 50.5 °F 29.59 in WSW 5.0 mph 9.0 mph 84% 0.00 in
11:04 54.8 °F 50.7 °F 29.61 in West 4.0 mph 10.0 mph 86% 0.00 in
11:19 47.5 °F 42.3 °F 29.64 in NW 4.0 mph 22.0 mph 82% 0.09 in
11:29 43.9 °F 39.7 °F 29.64 in NW 9.0 mph 15.0 mph 85% 0.13 in
11:34 43.2 °F 39.6 °F 29.64 in NNW 7.0 mph 15.0 mph 87% 0.14 in
11:39 42.7 °F 39.1 °F 29.64 in NNW 5.0 mph 17.0 mph 87% 0.14 in
11:44 42.1 °F 38.5 °F 29.65 in NNW 6.0 mph 17.0 mph 87% 0.15 in
11:49 41.7 °F 38.4 °F 29.65 in NNW 6.0 mph 15.0 mph 88% 0.15 in
11:54 41.2 °F 37.9 °F 29.66 in NNE 6.0 mph 14.0 mph 88% 0.15 in
11:59 40.9 °F 37.6 °F 29.65 in NW 4.0 mph 8.0 mph 88% 0.15 in
12:04 40.5 °F 37.2 °F 29.65 in North 6.0 mph 14.0 mph 88% 0.15 in
12:09 40.0 °F 36.7 °F 29.66 in North 8.0 mph 17.0 mph 88% 0.14 in
12:14 39.7 °F 36.4 °F 29.66 in NNW 7.0 mph 17.0 mph 88% 0.08 in
12:19 39.3 °F 36.0 °F 29.66 in North 8.0 mph 19.0 mph 88% 0.06 in
12:24 38.9 °F 35.6 °F 29.66 in North 9.0 mph 14.0 mph 88% 0.04 in
12:29 38.8 °F 35.8 °F 29.67 in NNE 10.0 mph 16.0 mph 89% 0.03 in
12:34 38.6 °F 35.4 °F 29.67 in NNW 5.0 mph 16.0 mph 88% 0.02 in
12:39 38.4 °F 35.4 °F 29.67 in North 6.0 mph 12.0 mph 89% 0.02 in
12:44 38.1 °F 35.1 °F 29.67 in NNW 6.0 mph 16.0 mph 89% 0.01 in
12:49 38.0 °F 35.0 °F 29.67 in NNW 7.0 mph 16.0 mph 89% 0.02 in
12:54 37.8 °F 34.8 °F 29.67 in North 7.0 mph 16.0 mph 89% 0.02 in
12:59 37.5 °F 34.6 °F 29.68 in North 7.0 mph 16.0 mph 89% 0.02 in
13:04 37.4 °F 34.5 °F 29.69 in North 6.0 mph 12.0 mph 89% 0.02 in
13:14 36.9 °F 34.0 °F 29.69 in North 5.0 mph 13.0 mph 89% 0.02 in
13:19 36.6 °F 33.7 °F 29.70 in North 6.0 mph 14.0 mph 89% 0.02 in
13:24 36.6 °F 33.7 °F 29.71 in North 6.0 mph 14.0 mph 89% 0.03 in
13:34 36.6 °F 33.7 °F 29.71 in North 7.0 mph 7.0 mph 89% 0.05 in
13:39 36.2 °F 33.3 °F 29.70 in North 7.0 mph 17.0 mph 89% 0.05 in
13:44 36.1 °F 33.2 °F 29.71 in NW 5.0 mph 11.0 mph 89% 0.06 in
13:49 36.0 °F 33.1 °F 29.71 in North 1.0 mph 12.0 mph 89% 0.05 in
13:54 36.1 °F 33.5 °F 29.71 in North 4.0 mph 12.0 mph 90% 0.05 in
13:59 36.1 °F 33.5 °F 29.72 in North 3.0 mph 8.0 mph 90% 0.06 in
14:04 35.9 °F 33.0 °F 29.74 in NNW 4.0 mph 9.0 mph 89% 0.06 in
14:09 35.9 °F 33.3 °F 29.74 in WNW 6.0 mph 11.0 mph 90% 0.06 in
14:14 36.0 °F 33.4 °F 29.75 in NW 3.0 mph 9.0 mph 90% 0.07 in
14:19 35.5 °F 32.6 °F 29.75 in NW 5.0 mph 14.0 mph 89% 0.08 in
14:24 35.1 °F 32.2 °F 29.75 in NW 6.0 mph 14.0 mph 89% 0.08 in
14:29 34.8 °F 31.9 °F 29.75 in NW 5.0 mph 13.0 mph 89% 0.07 in
14:34 34.7 °F 31.8 °F 29.76 in NNW 5.0 mph 13.0 mph 89% 0.05 in
14:39 34.6 °F 32.0 °F 29.76 in NNW 4.0 mph 13.0 mph 90% 0.06 in
14:44 34.3 °F 31.4 °F 29.77 in NW 6.0 mph 10.0 mph 89% 0.05 in
14:49 33.7 °F 30.8 °F 29.77 in North 6.0 mph 15.0 mph 89% 0.05 in
14:54 33.3 °F 30.4 °F 29.77 in WNW 6.0 mph 9.0 mph 89% 0.05 in
14:59 32.9 °F 30.0 °F 29.77 in NW 5.0 mph 11.0 mph 89% 0.04 in
15:04 32.4 °F 29.5 °F 29.77 in NW 6.0 mph 13.0 mph 89% 0.05 in
15:09 32.2 °F 29.3 °F 29.78 in NW 5.0 mph 13.0 mph 89% 0.05 in
15:14 31.9 °F 29.0 °F 29.79 in WNW 9.0 mph 11.0 mph 89% 0.05 in
15:19 31.8 °F 28.9 °F 29.79 in NNW 9.0 mph 11.0 mph 89% 0.04 in
15:24 31.5 °F 28.6 °F 29.79 in NNW 6.0 mph 11.0 mph 89% 0.04 in
15:29 31.3 °F 28.4 °F 29.80 in North 5.0 mph 10.0 mph 89% 0.05 in
15:34 31.1 °F 28.2 °F 29.80 in NW 5.0 mph 14.0 mph 89% 0.06 in
15:39 30.9 °F 28.0 °F 29.81 in NW 5.0 mph 14.0 mph 89% 0.05 in
15:44 30.4 °F 27.5 °F 29.81 in NW 4.0 mph 13.0 mph 89% 0.05 in
15:49 30.1 °F 27.3 °F 29.82 in WNW 6.0 mph 13.0 mph 89% 0.05 in
15:54 29.9 °F 27.1 °F 29.83 in WNW 6.0 mph 11.0 mph 89% 0.05 in
15:59 29.8 °F 27.0 °F 29.83 in NNW 3.0 mph 12.0 mph 89% 0.06 in
16:04 29.8 °F 27.0 °F 29.83 in NNW 4.0 mph 10.0 mph 89% 0.05 in
16:09 29.6 °F 26.8 °F 29.83 in NW 5.0 mph 10.0 mph 89% 0.05 in
16:14 29.4 °F 26.6 °F 29.83 in NW 4.0 mph 10.0 mph 89% 0.04 in
16:19 29.2 °F 26.4 °F 29.84 in NW 3.0 mph 12.0 mph 89% 0.04 in
16:24 28.7 °F 25.9 °F 29.84 in North 7.0 mph 11.0 mph 89% 0.03 in
16:29 28.3 °F 25.5 °F 29.85 in NW 5.0 mph 7.0 mph 89% 0.02 in
16:34 28.0 °F 25.2 °F 29.85 in WNW 9.0 mph 10.0 mph 89% 0.01 in
16:39 27.6 °F 24.5 °F 29.86 in NW 5.0 mph 11.0 mph 88% 0.01 in
16:44 27.0 °F 23.9 °F 29.87 in NW 5.0 mph 11.0 mph 88% 0.01 in
16:49 26.9 °F 24.1 °F 29.88 in NW 5.0 mph 11.0 mph 89% 0.01 in
16:59 26.4 °F 23.3 °F 29.88 in NNW 7.0 mph 14.0 mph 88% 0.00 in
17:04 25.9 °F 22.8 °F 29.88 in West 7.0 mph 14.0 mph 88% 0.00 in
17:09 25.5 °F 22.4 °F 29.87 in NNW 4.0 mph 12.0 mph 88% 0.00 in
17:14 25.2 °F 22.1 °F 29.86 in NNW 6.0 mph 14.0 mph 88% 0.00 in
17:19 24.9 °F 21.8 °F 29.86 in NNW 6.0 mph 14.0 mph 88% 0.00 in
17:24 24.6 °F 21.6 °F 29.86 in NNW 5.0 mph 13.0 mph 88% 0.00 in
17:29 24.3 °F 21.3 °F 29.87 in NNW 4.0 mph 11.0 mph 88% 0.00 in
17:34 24.0 °F 21.0 °F 29.88 in NW 4.0 mph 10.0 mph 88% 0.00 in
17:49 23.3 °F 20.3 °F 29.88 in NNW 5.0 mph 11.0 mph 88% 0.00 in
17:54 23.2 °F 20.4 °F 29.88 in NNW 5.0 mph 11.0 mph 89% 0.00 in
17:59 23.2 °F 20.4 °F 29.89 in NNW 4.0 mph 8.0 mph 89% 0.00 in
18:04 23.0 °F 20.0 °F 29.89 in NNW 5.0 mph 13.0 mph 88% 0.00 in
18:09 22.7 °F 19.7 °F 29.90 in NNW 7.0 mph 14.0 mph 88% 0.00 in
18:14 22.4 °F 19.4 °F 29.90 in NNW 7.0 mph 14.0 mph 88% 0.00 in
18:19 22.2 °F 19.5 °F 29.90 in North 4.0 mph 11.0 mph 89% 0.00 in
18:24 22.1 °F 19.1 °F 29.90 in NW 3.0 mph 13.0 mph 88% 0.00 in
18:34 21.9 °F 19.2 °F 29.91 in NNW 5.0 mph 11.0 mph 89% 0.00 in
18:39 21.9 °F 19.2 °F 29.93 in NNW 5.0 mph 8.0 mph 89% 0.00 in
18:44 21.9 °F 19.2 °F 29.93 in NNW 7.0 mph 14.0 mph 89% 0.00 in
18:49 21.8 °F 18.8 °F 29.93 in NNW 9.0 mph 12.0 mph 88% 0.00 in
18:54 21.5 °F 18.5 °F 29.93 in North 7.0 mph 12.0 mph 88% 0.00 in
18:59 21.3 °F 18.3 °F 29.93 in North 8.0 mph 13.0 mph 88% 0.00 in
19:04 20.8 °F 17.8 °F 29.93 in North 7.0 mph 16.0 mph 88% 0.00 in
19:14 20.4 °F 17.4 °F 29.95 in NNW 6.0 mph 15.0 mph 88% 0.00 in
19:19 20.3 °F 17.3 °F 29.95 in NNW 5.0 mph 13.0 mph 88% 0.00 in
19:24 20.3 °F 17.3 °F 29.98 in North 4.0 mph 9.0 mph 88% 0.00 in
19:29 20.1 °F 17.1 °F 29.99 in NW 2.0 mph 8.0 mph 88% 0.00 in
19:34 20.1 °F 17.4 °F 29.98 in NW 8.0 mph 10.0 mph 89% 0.00 in
19:39 19.9 °F 16.9 °F 29.98 in NNW 6.0 mph 16.0 mph 88% 0.00 in
19:49 19.6 °F 16.6 °F 29.98 in North 6.0 mph 12.0 mph 88% 0.00 in
19:54 19.4 °F 16.4 °F 29.98 in NNW 9.0 mph 13.0 mph 88% 0.00 in
20:04 19.1 °F 16.1 °F 29.97 in NNE 3.0 mph 13.0 mph 88% 0.00 in
20:09 19.0 °F 16.0 °F 29.97 in North 5.0 mph 13.0 mph 88% 0.00 in
20:14 19.0 °F 16.3 °F 29.96 in North 3.0 mph 8.0 mph 89% 0.00 in
20:19 19.0 °F 16.3 °F 29.95 in North 5.0 mph 8.0 mph 89% 0.00 in
20:24 18.9 °F 16.2 °F 29.95 in North 4.0 mph 8.0 mph 89% 0.00 in
20:29 18.8 °F 16.1 °F 29.95 in North 4.0 mph 8.0 mph 89% 0.00 in
20:39 18.6 °F 15.9 °F 29.95 in NNE 5.0 mph 9.0 mph 89% 0.00 in
20:44 18.6 °F 15.6 °F 29.95 in NNE 5.0 mph 9.0 mph 88% 0.00 in
20:49 18.5 °F 15.5 °F 29.95 in NNE 5.0 mph 11.0 mph 88% 0.00 in
20:54 18.5 °F 15.5 °F 29.94 in NNE 5.0 mph 14.0 mph 88% 0.00 in
20:59 18.4 °F 15.4 °F 29.94 in North 8.0 mph 12.0 mph 88% 0.00 in
21:04 18.3 °F 15.3 °F 29.94 in North 6.0 mph 12.0 mph 88% 0.00 in
21:09 18.3 °F 15.6 °F 29.95 in NNE 4.0 mph 7.0 mph 89% 0.00 in
21:14 18.3 °F 15.6 °F 29.95 in NNE 5.0 mph 8.0 mph 89% 0.00 in
21:19 18.3 °F 15.6 °F 29.95 in North 6.0 mph 10.0 mph 89% 0.00 in
21:24 18.3 °F 15.6 °F 29.94 in North 6.0 mph 10.0 mph 89% 0.00 in
21:29 18.2 °F 15.5 °F 29.94 in North 4.0 mph 11.0 mph 89% 0.00 in
21:34 18.0 °F 15.0 °F 29.95 in North 6.0 mph 15.0 mph 88% 0.00 in
21:39 17.8 °F 14.8 °F 29.95 in North 7.0 mph 15.0 mph 88% 0.00 in
21:44 17.6 °F 14.7 °F 29.94 in North 5.0 mph 12.0 mph 88% 0.00 in
21:49 17.5 °F 14.6 °F 29.94 in NNW 5.0 mph 10.0 mph 88% 0.00 in
21:59 17.3 °F 14.4 °F 29.94 in North 6.0 mph 12.0 mph 88% 0.00 in
22:04 17.1 °F 14.2 °F 29.95 in North 6.0 mph 12.0 mph 88% 0.00 in
22:09 17.0 °F 14.1 °F 29.95 in NNW 8.0 mph 8.0 mph 88% 0.00 in
22:14 17.0 °F 14.1 °F 29.96 in North 4.0 mph 9.0 mph 88% 0.00 in
22:19 16.9 °F 14.0 °F 29.97 in North 2.0 mph 11.0 mph 88% 0.00 in
22:24 16.9 °F 14.0 °F 29.97 in North 5.0 mph 10.0 mph 88% 0.00 in
22:29 16.8 °F 13.9 °F 29.97 in North 5.0 mph 11.0 mph 88% 0.00 in
22:34 16.8 °F 13.9 °F 29.97 in North 3.0 mph 8.0 mph 88% 0.00 in
22:39 16.7 °F 13.8 °F 29.97 in NNW 4.0 mph 8.0 mph 88% 0.00 in
22:44 16.7 °F 13.8 °F 29.96 in North 6.0 mph 11.0 mph 88% 0.00 in
22:49 16.7 °F 13.8 °F 29.97 in NNW 4.0 mph 13.0 mph 88% 0.00 in
22:54 16.6 °F 13.7 °F 29.98 in NNW 3.0 mph 10.0 mph 88% 0.00 in
23:04 16.6 °F 13.7 °F 29.98 in NNW 5.0 mph 10.0 mph 88% 0.00 in
23:09 16.6 °F 13.7 °F 29.98 in NNW 6.0 mph 12.0 mph 88% 0.00 in
23:14 16.6 °F 13.7 °F 29.98 in NNW 5.0 mph 12.0 mph 88% 0.00 in
23:19 16.7 °F 13.8 °F 29.97 in North 10.0 mph 12.0 mph 88% 0.00 in
23:29 16.7 °F 13.8 °F 29.95 in NNW 9.0 mph 10.0 mph 88% 0.00 in
23:34 16.8 °F 13.9 °F 29.94 in North 6.0 mph 10.0 mph 88% 0.00 in
23:39 16.8 °F 13.9 °F 29.97 in North 6.0 mph 15.0 mph 88% 0.00 in
23:49 16.8 °F 13.9 °F 29.98 in North 5.0 mph 10.0 mph 88% 0.00 in
23:54 16.8 °F 13.9 °F 29.97 in North 5.0 mph 10.0 mph 88% 0.00 in
23:59 16.8 °F 13.9 °F 29.97 in NNE 5.0 mph 9.0 mph 88% 0.00 in
Buffalo, New York, USA
Compliments of Weather Underground - 2.25 mb